Regional Weather Roundup
Issued by NWS

Home | Current Version | Previous Version | Text Only | Print | Product List | Glossary On
Versions: 1 2 3 4 5 6 7 8 9 10 11 12 13 14 15 16 17 18 19 20 21 22 23 24 25 26 27 28 29 30 31 32 33 34 35 36 37 38 39 40 41 42 43 44 45 46 47 48 49 50
582
ASCA42 TJSJ 141110
RWRPR
PUERTO RICO/U.S. VIRGIN ISLANDS HOURLY WEATHER ROUNDUP
NATIONAL WEATHER SERVICE SAN JUAN PR
700 AM AST SUN FEB 14 2016

PRZ001-004-141200-
PUERTO RICO

CITY           SKY/WX    TMP DP  RH WIND       PRES   REMARKS
SAN JUAN LMM   CLOUDY    72  66  83 SE5       29.99R
PONCE          PTCLDY    66  63  88 CALM      29.95
AGUADILLA      CLEAR     70  64  83 SE3       30.00
CEIBA          CLOUDY    72  68  88 N6        30.01R
$$

PRZ006-007-141200-
U.S. VIRGIN ISLANDS

CITY           SKY/WX    TMP DP  RH WIND       PRES   REMARKS
CHARLOTTE AMA  CLOUDY    75  64  69 E5        29.98R
CHRISTIANSTED  PTCLDY    73  66  78 NE5       29.99R
$$

HOURLY WEATHER ROUNDUP FOR THE NEWS MEDIA

CITY           SKY/WX    TMP DP  RH WIND       PRES   REMARKS
ORLANDO        CLEAR     47  37  68 N7        30.24F
NEW YORK       PTCLDY     3 -19  35 NW29      30.45R WCI -21
NEWARK         CLEAR      2 -17  41 NW18G25   30.45R WCI -19
CHICAGO        MOCLDY    13   3  64 S8        30.39F WCI   2
HARTFORD       CLEAR     -9 -25  45 NW13G24   30.26R WCI -29
BOSTON         PTCLDY    -9 -24  48 NW18G31   30.29R WCI -33
DALLAS         CLOUDY    60  52  74 S15G28    29.97F
PHILADELPHIA   PTCLDY    10 -10  40 NW9       30.49R WCI  -3
LOS ANGELES    FOG       51  50  96 CALM      30.05F VSB 1/4
WASHINGTON DC  FAIR      10  -3  55 W3        30.52R



USA.gov is the U.S. government's official web portal to all federal, state and local government web resources and services.